Simultaneous Nadir Overpasses (SNOs) Predictions

Prediction of SNOs between GOES-16 and NOAA-19 Satellite Orbit:

Table of predicted SNOs for the next 14.0 days since TLE Epoch: 3/21/2025
Index Date Time (GOES-16) GOES-16 Lat,Lon NOAA-19 Lat,Lon Distance(km) Time Diff (sec)
1 03/23/2025 02:52:28 -0.06, -75.45 -0.47, -77.20 200.85 80
2 03/24/2025 02:37:13 -0.06, -75.47 0.23, -74.15 149.74 80
3 03/26/2025 14:55:57 0.06, -75.56 0.74, -78.63 349.55 80
4 03/27/2025 14:46:01 0.06, -75.59 0.06, -75.57 2.14 80
5 03/28/2025 14:33:27 0.06, -75.62 -0.68, -72.52 353.79 80
6 03/31/2025 02:52:12 -0.06, -75.65 -0.36, -76.99 152.53 80
7 04/01/2025 02:36:56 -0.06, -75.68 0.31, -73.93 199.24 80
8 04/03/2025 14:55:37 0.05, -75.79 0.65, -78.40 297.35 80
9 04/04/2025 14:45:42 0.05, -75.82 -0.06, -75.34 55.02 80
